Pontiac, IL

12:58 AM CDT on September 27, 2016 (GMT -0500)
Pontiac Municipal

Weather History for KPNT - November, 2012

Change the Weather History Date:

Friday, November 23, 2012

  Actual Average Record
Temperature  
Mean Temperature 34 °F -  
Max Temperature 42 °F 46 °F 72 °F (1931)
Min Temperature 26 °F 30 °F 5 °F (1950)
Degree Days  
Heating Degree Days 31    
Moisture  
Dew Point 23 °F    
Average Humidity 66    
Maximum Humidity 87    
Minimum Humidity 48    
Precipitation  
Precipitation 0.00 in - - ()
Sea Level Pressure  
Sea Level Pressure 30.13 in    
Wind  
Wind Speed 22 mph (WNW)    
Max Wind Speed 39 mph    
Max Gust Speed 50 mph    
Visibility 10 miles    
Events      
Averages and records for this station are not official NWS values.
T = Trace of Precipitation, MM = Missing Value Source: NWS Daily Summary

Daily Weather History Graph

Daily Weather History Graph

Search for Another Location

Airport or City:

Trip Planner

Search our weather history database for the weather conditions in past years. The results will help you decide how hot, cold, wet, or windy it might be!

Date:

Astronomy

Nov. 23, 2012 Rise Set
Actual Time 6:51 AM CST 4:30 PM CST
Civil Twilight 6:21 AM CST 5:00 PM CST
Nautical Twilight 5:47 AM CST 5:33 PM CST
Astronomical Twilight 5:15 AM CST 6:06 PM CST
Moon 1:46 PM CST (11/23) 2:08 AM CST (11/23)
Length of Visible Light 10h 38m
Length of Day
9h 38m
Waxing Gibbous, 80% of the Moon is Illuminated
Nov 23
Waxing Gibbous
Nov 28
Full
Dec 6
Last Quarter
Dec 13
New
Dec 19
First Quarter

Hourly Weather History & Observations

Time (CST) Temp. Windchill Dew Point Humidity Pressure Visibility Wind Dir Wind Speed Gust Speed Precip Events Conditions
12:15 AM 42.8 °F 33.8 °F 35.6 °F 76% 29.98 in 10.0 mi West 21.9 mph 27.6 mph N/A   Clear
12:35 AM 42.8 °F 33.5 °F 35.6 °F 76% 29.99 in 10.0 mi West 23.0 mph 31.1 mph N/A   Clear
12:55 AM 41.0 °F 30.7 °F 33.8 °F 76% 30.00 in 10.0 mi WNW 25.3 mph 34.5 mph N/A   Clear
1:15 AM 41.0 °F 31.1 °F 33.8 °F 76% 30.00 in 10.0 mi West 23.0 mph 31.1 mph N/A   Clear
1:35 AM 39.2 °F 30.2 °F 33.8 °F 81% 30.00 in 10.0 mi West 17.3 mph - N/A   Clear
1:55 AM 39.2 °F 31.2 °F 33.8 °F 81% 30.00 in 10.0 mi West 13.8 mph - N/A   Clear
2:15 AM 37.4 °F 28.5 °F 33.8 °F 87% 30.01 in 10.0 mi West 15.0 mph - N/A   Clear
2:35 AM 37.4 °F 29.3 °F 33.8 °F 87% 30.00 in 10.0 mi WSW 12.7 mph - N/A   Clear
2:55 AM 37.4 °F 29.8 °F 33.8 °F 87% 30.00 in 10.0 mi WSW 11.5 mph - N/A   Clear
3:15 AM 37.4 °F 28.9 °F 33.8 °F 87% 30.00 in 10.0 mi WSW 13.8 mph - N/A   Clear
3:35 AM 37.4 °F 27.8 °F 33.8 °F 87% 29.99 in 10.0 mi West 17.3 mph 20.7 mph N/A   Clear
3:55 AM 37.4 °F 27.2 °F 33.8 °F 87% 29.98 in 10.0 mi West 19.6 mph 27.6 mph N/A   Clear
4:15 AM 37.4 °F 27.2 °F 32.0 °F 81% 29.99 in 10.0 mi West 19.6 mph 25.3 mph N/A   Clear
4:35 AM 37.4 °F 26.6 °F 32.0 °F 81% 29.99 in 10.0 mi West 21.9 mph 27.6 mph N/A   Clear
4:55 AM 39.2 °F 26.6 °F 26.6 °F 61% 30.00 in 10.0 mi WNW 34.5 mph 43.7 mph N/A   Clear
5:15 AM 37.4 °F 25.2 °F 26.6 °F 65% 30.00 in 10.0 mi WNW 28.8 mph 36.8 mph N/A   Scattered Clouds
5:35 AM 37.4 °F 25.2 °F 24.8 °F 60% 30.01 in 10.0 mi WNW 28.8 mph 36.8 mph N/A   Scattered Clouds
5:55 AM 35.6 °F 23.2 °F 24.8 °F 65% 30.01 in 10.0 mi West 26.5 mph 35.7 mph N/A   Clear
6:15 AM 35.6 °F 23.7 °F 24.8 °F 65% 30.02 in 10.0 mi West 24.2 mph 34.5 mph N/A   Scattered Clouds
6:35 AM 35.6 °F 22.7 °F 24.8 °F 65% 30.02 in 10.0 mi West 28.8 mph 35.7 mph N/A   Mostly Cloudy
6:55 AM 35.6 °F 22.5 °F 24.8 °F 65% 30.03 in 10.0 mi West 29.9 mph 33.4 mph N/A   Overcast
7:15 AM 35.6 °F 22.5 °F 24.8 °F 65% 30.04 in 10.0 mi WNW 29.9 mph 35.7 mph N/A   Overcast
7:35 AM 35.6 °F 23.4 °F 24.8 °F 65% 30.05 in 10.0 mi West 25.3 mph 32.2 mph N/A   Overcast
7:55 AM 35.6 °F 22.1 °F 24.8 °F 65% 30.06 in 10.0 mi WNW 32.2 mph 35.7 mph N/A   Overcast
8:15 AM 35.6 °F 24.0 °F 24.8 °F 65% 30.07 in 10.0 mi WNW 23.0 mph 35.7 mph N/A   Overcast
8:35 AM 33.8 °F 19.9 °F 21.2 °F 60% 30.07 in 10.0 mi WNW 31.1 mph 42.6 mph N/A   Mostly Cloudy
8:55 AM 35.6 °F 21.0 °F 21.2 °F 56% 30.07 in 10.0 mi WNW 39.1 mph 49.5 mph N/A   Clear
9:15 AM 35.6 °F 22.3 °F 21.2 °F 56% 30.09 in 10.0 mi WNW 31.1 mph 41.4 mph N/A   Scattered Clouds
9:35 AM 33.8 °F 19.6 °F 21.2 °F 60% 30.10 in 10.0 mi WNW 32.2 mph 43.7 mph N/A   Overcast
9:55 AM 33.8 °F 21.0 °F 21.2 °F 60% 30.12 in 10.0 mi WNW 25.3 mph 35.7 mph N/A   Overcast
10:15 AM 33.8 °F 20.3 °F 21.2 °F 60% 30.12 in 10.0 mi WNW 28.8 mph 33.4 mph N/A   Overcast
10:35 AM 33.8 °F 20.3 °F 21.2 °F 60% 30.13 in 10.0 mi West 28.8 mph 35.7 mph N/A   Overcast
10:55 AM 33.8 °F 20.5 °F 21.2 °F 60% 30.14 in 10.0 mi WNW 27.6 mph 35.7 mph N/A   Overcast
11:15 AM 33.8 °F 20.5 °F 19.4 °F 56% 30.14 in 10.0 mi WNW 27.6 mph 35.7 mph N/A   Overcast
11:35 AM 33.8 °F 20.3 °F 19.4 °F 56% 30.14 in 10.0 mi WNW 28.8 mph 38.0 mph N/A   Overcast
11:55 AM 33.8 °F 21.0 °F 19.4 °F 56% 30.14 in 10.0 mi WNW 25.3 mph 35.7 mph N/A   Overcast
12:15 PM 35.6 °F 23.0 °F 19.4 °F 52% 30.14 in 10.0 mi WNW 27.6 mph 33.4 mph N/A   Overcast
12:35 PM 35.6 °F 23.2 °F 19.4 °F 52% 30.14 in 10.0 mi WNW 26.5 mph 34.5 mph N/A   Overcast
12:55 PM 35.6 °F 23.0 °F 19.4 °F 52% 30.14 in 10.0 mi WNW 27.6 mph 33.4 mph N/A   Overcast
1:15 PM 35.6 °F 23.7 °F 19.4 °F 52% 30.15 in 10.0 mi WNW 24.2 mph 32.2 mph N/A   Overcast
1:35 PM 35.6 °F 24.5 °F 17.6 °F 48% 30.15 in 10.0 mi NW 20.7 mph 36.8 mph N/A   Scattered Clouds
1:55 PM 35.6 °F 23.0 °F 19.4 °F 52% 30.15 in 10.0 mi WNW 27.6 mph 36.8 mph N/A   Scattered Clouds
2:15 PM 35.6 °F 23.7 °F 19.4 °F 52% 30.16 in 10.0 mi WNW 24.2 mph 31.1 mph N/A   Mostly Cloudy
2:35 PM 35.6 °F 23.7 °F 19.4 °F 52% 30.17 in 10.0 mi NW 24.2 mph 34.5 mph N/A   Scattered Clouds
2:55 PM 35.6 °F 24.0 °F 17.6 °F 48% 30.18 in 10.0 mi WNW 23.0 mph 33.4 mph N/A   Scattered Clouds
3:15 PM 33.8 °F 21.3 °F 17.6 °F 52% 30.19 in 10.0 mi WNW 24.2 mph 31.1 mph N/A   Scattered Clouds
3:35 PM 33.8 °F 20.8 °F 17.6 °F 52% 30.20 in 10.0 mi WNW 26.5 mph 31.1 mph N/A   Scattered Clouds
3:55 PM 32.0 °F 19.5 °F 17.6 °F 55% 30.20 in 10.0 mi WNW 21.9 mph - N/A   Clear
4:15 PM 30.2 °F 16.2 °F 17.6 °F 60% 30.21 in 10.0 mi WNW 25.3 mph - N/A   Clear
4:35 PM 30.2 °F 18.1 °F 17.6 °F 60% 30.22 in 10.0 mi WNW 18.4 mph - N/A   Clear
4:55 PM 30.2 °F 17.4 °F 15.8 °F 55% 30.22 in 10.0 mi WNW 20.7 mph 27.6 mph N/A   Clear
5:15 PM 28.4 °F 16.6 °F 15.8 °F 59% 30.24 in 10.0 mi WNW 16.1 mph 20.7 mph N/A   Clear
5:35 PM 28.4 °F 16.2 °F 17.6 °F 64% 30.24 in 10.0 mi WNW 17.3 mph - N/A   Clear
5:55 PM 28.4 °F 17.0 °F 15.8 °F 59% 30.24 in 10.0 mi WNW 15.0 mph 20.7 mph N/A   Clear
6:15 PM 28.4 °F 18.0 °F 17.6 °F 64% 30.25 in 10.0 mi WNW 12.7 mph - N/A   Clear
6:35 PM 28.4 °F 17.0 °F 17.6 °F 64% 30.26 in 10.0 mi WNW 15.0 mph - N/A   Clear
6:55 PM 28.4 °F 18.0 °F 17.6 °F 64% 30.25 in 10.0 mi West 12.7 mph - N/A   Clear
7:15 PM 26.6 °F 15.7 °F 17.6 °F 69% 30.25 in 10.0 mi WNW 12.7 mph - N/A   Clear
7:35 PM 28.4 °F 17.0 °F 17.6 °F 64% 30.25 in 10.0 mi WNW 15.0 mph - N/A   Clear
7:55 PM 26.6 °F 14.3 °F 17.6 °F 69% 30.24 in 10.0 mi WNW 16.1 mph - N/A   Clear
8:15 PM 26.6 °F 14.7 °F 17.6 °F 69% 30.25 in 10.0 mi WNW 15.0 mph - N/A   Clear
8:35 PM 26.6 °F 15.7 °F 17.6 °F 69% 30.25 in 10.0 mi WNW 12.7 mph - N/A   Clear
8:55 PM 26.6 °F 16.8 °F 17.6 °F 69% 30.25 in 10.0 mi WNW 10.4 mph - N/A   Clear
9:15 PM 26.6 °F 17.5 °F 17.6 °F 69% 30.24 in 10.0 mi WNW 9.2 mph - N/A   Clear
9:35 PM 26.6 °F 18.2 °F 19.4 °F 74% 30.25 in 10.0 mi WNW 8.1 mph - N/A   Mostly Cloudy
9:55 PM 26.6 °F 18.2 °F 19.4 °F 74% 30.25 in 10.0 mi NW 8.1 mph - N/A   Overcast
10:15 PM 26.6 °F 20.0 °F 19.4 °F 74% 30.25 in 10.0 mi NW 5.8 mph - N/A   Overcast
10:35 PM 26.6 °F 18.2 °F 19.4 °F 74% 30.24 in 10.0 mi WNW 8.1 mph - N/A   Overcast
10:55 PM 26.6 °F 18.2 °F 19.4 °F 74% 30.24 in 10.0 mi WNW 8.1 mph - N/A   Overcast
11:15 PM 26.6 °F 17.5 °F 19.4 °F 74% 30.25 in 10.0 mi WNW 9.2 mph - N/A   Overcast
11:35 PM 26.6 °F 16.2 °F 19.4 °F 74% 30.25 in 10.0 mi WNW 11.5 mph - N/A   Overcast
11:55 PM 26.6 °F 16.2 °F 19.4 °F 74% 30.25 in 10.0 mi NW 11.5 mph - N/A   Overcast